Regional Weather Roundup
Issued by NWS

Home | Current Version | Previous Version | Text Only | Print | Product List | Glossary On
Versions: 1 2 3 4 5 6 7 8 9 10 11 12 13 14 15 16 17 18 19 20 21 22 23 24 25 26 27 28 29 30 31 32 33 34 35 36 37 38 39 40 41 42 43 44 45 46 47 48 49 50
000
ASUS45 KBOU 020107
RWRCO

WEATHER ROUNDUP FOR COLORADO
NATIONAL WEATHER SERVICE DENVER/BOULDER CO
600 PM MST SUN MAR 01 2015

NOTE: "FAIR" INDICATES FEW OR NO CLOUDS BELOW 12000 FEET WITH NO
SIGNIFICANT WEATHER AND/OR OBSTRUCTIONS TO VISIBILITY.

COZ001>005-013-030-031-020200-
...NORTHWEST COLORADO...

CITY           SKY/WX    TMP DP  RH WIND       PRES   REMARKS
CRAIG          MOCLDY    32  24  72 E6        30.06F WCI  26
HAYDEN         MOCLDY    30  21  69 E5        30.06S WCI  25
MEEKER         CLOUDY    33  27  78 W3        30.05R
MOUNT WERNER   NOT AVBL
STEAMBOAT SPGS CLOUDY    29  21  74 CALM      30.05F
WALDEN         CLOUDY    28  19  69 E5        30.04S WCI  23
$$

COZ006>008-011-020200-
...WEST CENTRAL VALLEYS...

CITY           SKY/WX    TMP DP  RH WIND       PRES   REMARKS
GRAND JUNCTION CLOUDY    43  30  60 SE3       30.05R
MONTROSE       FLURRIES  33  32  96 CALM      30.09S
EAGLE          CLOUDY    37  27  65 S3        30.09R
RIFLE          CLOUDY    43  26  51 SE6       30.04S
DELTA          CLOUDY    40  34  80 SW3       30.09R
NUCLA          CLOUDY    36  32  87 CALM      30.09F
$$

COZ017>023-064>068-020200-
...SOUTHWEST COLORADO...

CITY           SKY/WX    TMP DP  RH WIND       PRES   REMARKS
DURANGO        CLOUDY    36  34  92 CALM      30.09R
CORTEZ         MOCLDY    39  35  86 NE3       30.04F
PAGOSA SPRINGS CLOUDY    35  35  99 CALM      30.12R
TELLURIDE      LGT SNOW  33  31  89 CALM      30.08R
WOLF CREEK PAS CLOUDY    23  23 100 MISG      30.14R
$$

COZ009-010-012-014-032>034-037-058>063-020200-
...CENTRAL COLORADO...

CITY           SKY/WX    TMP DP  RH WIND       PRES   REMARKS
ASPEN          LGT SNOW  30  27  88 CALM      30.06R FOG
BUENA VISTA    LGT SNOW  31  29  94 CALM      30.09R
COPPER MTN     LGT SNOW  23  18  80 SE13      30.07S WCI  11
BERTHOUD PASS  LGT SNOW  12   7  79 SW9       30.08S WCI   0
COTTONWOOD PAS SNOW      30  28  93 CALM      30.08R VSB<1/4
GUNNISON       CLOUDY    28  25  86 CALM      30.12R
KREMMLING      CLOUDY    34  21  60 S5        30.07R WCI  30
LEADVILLE      LGT SNOW  22  21  96 S3        30.07R FOG
SALIDA         CLOUDY    28  26  89 SE8G17    30.17R WCI  20
SUNLIGHT       LGT SNOW  25  23  93 CALM        N/A
WILKERSON PASS LGT SNOW  21  19  93 SW3       30.12S
$$

COZ069>075-020200-
...SAN LUIS VALLEY/SANGRE DE CRISTO MOUNTAINS...

CITY           SKY/WX    TMP DP  RH WIND       PRES   REMARKS
ALAMOSA        MOCLDY    31  27  85 NW6       30.08S WCI  25
LA VETA PASS   CLOUDY    30  28  93 S17G29    30.12R WCI  18
SAGUACHE       LGT SNOW  32  32 100 CALM      30.10R
$$

COZ035-036-038>040-020200-
...NORTHERN COLORADO FRONT RANGE...

CITY           SKY/WX    TMP DP  RH WIND       PRES   REMARKS
DENVER INTL AP MOCLDY    21  15  78 S6        30.22R WCI  13
DMNS CITY PARK   N/A     23  15  69 E5        30.23R WCI  17
AURORA         MOCLDY    20  14  79 SE5       30.22R WCI  13
FRONT RANGE AP NOT AVBL
ERIE MUNI ARPT CLOUDY    26  17  71 E5        30.24R WCI  20
BOULDER MUN AP CLOUDY    25  18  74 NE5       30.22R WCI  19
CENTENNIAL     CLOUDY    21  15  78 SE7       30.20R WCI  12
BROOMFIELD     CLOUDY    25  18  74 E7        30.21S WCI  17
FORT COLLINS   MOCLDY    23  16  74 S6        30.25S WCI  16
LONGMONT       MOCLDY    26  17  68 E3        30.25S
$$

COZ041-046-047-076>085-087-088-020200-
...PIKES PEAK/PALMER DIVIDE AND SOUTHERN FOOTHILLS...

CITY           SKY/WX    TMP DP  RH WIND       PRES   REMARKS
COLO. SPRINGS  LGT SNOW  23  20  88 S10       30.22R VSB 3/4 WCI  12
A. F. ACADEMY  LGT SNOW  22  19  88 S10       30.18R FOG     WCI  11
ELLICOTT       NOT AVBL
FALCON         LGT SNOW  20  18  90 E5        30.19R WCI  14
FORT CARSON    LGT SNOW  22  20  90 S8        30.21R FOG     WCI  13
LIMON          CLOUDY    24  18  77 VRB3      30.23S
MONUMENT HILL  CLOUDY    19  16  86 E8        30.15S WCI   9
TRINIDAD       CLOUDY    23  16  74 NE7       30.23R WCI  15
$$

COZ042>045-048>051-090-091-020200-
...NORTHEAST COLORADO...

CITY           SKY/WX    TMP DP  RH WIND       PRES   REMARKS
GREELEY ARPT   CLOUDY    27  12  54 W6        30.24R WCI  20
AKRON          MOCLDY    26  17  68 NW5       30.24S WCI  20
BURLINGTON     CLOUDY    30  18  60 E6        30.27R WCI  24
WRAY           PTCLDY    32  16  52 E5        30.28S WCI  28
STERLING       MOCLDY    28  18  64 W5        30.26S WCI  23
HOLYOKE        NOT AVBL
FORT MORGAN    MOCLDY    27  17  65 N5        30.26R WCI  21
$$

COZ086-089-092>099-020200-
...SOUTHEAST COLORADO...

CITY           SKY/WX    TMP DP  RH WIND       PRES   REMARKS
PUEBLO         CLOUDY    26  19  74 S3        30.27R
LA JUNTA       CLOUDY    30  20  66 CALM      30.28R
LAMAR          CLOUDY    30  21  69 CALM      30.29R
SPRINGFIELD      N/A     24  20  84 E7        30.25S WCI  16
$$


USA.gov is the U.S. government's official web portal to all federal, state and local government web resources and services.